FW8740 Weather Reports


Display with metric or nautical units.
time (UTC)temp
F
wind
direction
speed
MPH
gust
MPH
rain 1hr
in
rain 24hr
in
rain mn
in
humidity
%
barometer
mb
20260506002532 64 230 4.0 6.0 0.00 0.00 0.00 71 1012.5
20260506002028 64 228 5.0 6.0 0.00 0.00 0.00 71 1012.4
20260506001524 65 143 1.0 2.0 0.00 0.00 0.00 70 1012.3
20260506001022 65 144 1.0 2.0 0.00 0.00 0.00 70 1012.3
20260506000519 65 168 1.0 2.0 0.00 0.00 0.00 70 1012.5
20260506000016 65 132 1.0 2.0 0.00 0.00 0.00 70 1012.3
20260505235514 66 125 1.0 3.0 0.00 0.00 0.00 69 1012.1
20260505235010 66 132 2.0 2.0 0.00 0.00 0.00 69 1012.0
20260505234508 66 161 1.0 2.0 0.00 0.00 0.00 69 1012.2
20260505234004 66 140 1.0 3.0 0.00 0.00 0.00 68 1012.0
20260505233502 66 152 1.0 3.0 0.00 0.00 0.00 68 1011.8
20260505232959 67 234 2.0 3.0 0.00 0.00 0.00 68 1011.7
20260505232457 67 122 0.0 2.0 0.00 0.00 0.00 67 1011.6
20260505231954 67 172 1.0 5.0 0.00 0.00 0.00 66 1011.6
20260505231451 68 161 2.0 3.0 0.00 0.00 0.00 66 1011.7
20260505230950 68 109 1.0 5.0 0.00 0.00 0.00 66 1011.2
20260505230447 68 119 1.0 5.0 0.00 0.00 0.00 65 1011.4
20260505225943 68 219 2.0 5.0 0.00 0.00 0.00 65 1011.2
20260505225440 68 139 3.0 3.0 0.00 0.00 0.00 65 1011.2
20260505224936 69 161 2.0 3.0 0.00 0.00 0.00 65 1011.5
20260505224433 69 229 3.0 8.0 0.00 0.00 0.00 64 1011.2
20260505223930 69 240 2.0 5.0 0.00 0.00 0.00 64 1011.2
20260505223427 69 209 3.0 5.0 0.00 0.00 0.00 63 1011.0
20260505222924 69 206 2.0 3.0 0.00 0.00 0.00 62 1011.0
20260505222420 70 138 1.0 5.0 0.00 0.00 0.00 62 1011.1
20260505221916 70 225 3.0 3.0 0.00 0.00 0.00 62 1011.4
20260505221414 70 110 2.0 7.0 0.00 0.00 0.00 61 1011.3
20260505220910 71 149 1.0 6.0 0.00 0.00 0.00 61 1011.2
20260505220407 71 184 3.0 6.0 0.00 0.00 0.00 60 1011.2
20260505215905 71 141 2.0 3.0 0.00 0.00 0.00 60 1011.0
20260505215403 72 166 0.0 2.0 0.00 0.00 0.00 60 1011.0
20260505214901 72 58 1.0 2.0 0.00 0.00 0.00 59 1010.8
20260505214358 72 110 1.0 2.0 0.00 0.00 0.00 59 1011.0
20260505213855 72 148 1.0 6.0 0.00 0.00 0.00 59 1011.1
20260505213353 72 249 3.0 6.0 0.00 0.00 0.00 59 1010.8
20260505212849 73 226 3.0 5.0 0.00 0.00 0.00 58 1010.7
20260505212346 73 168 2.0 5.0 0.00 0.00 0.00 57 1010.9
20260505211842 74 244 4.0 5.0 0.00 0.00 0.00 57 1010.7
20260505211340 73 134 3.0 7.0 0.00 0.00 0.00 57 1010.9
20260505210836 74 172 3.0 7.0 0.00 0.00 0.00 57 1010.8
20260505210333 73 167 3.0 8.0 0.00 0.00 0.00 57 1010.7
20260505205830 73 177 3.0 6.0 0.00 0.00 0.00 57 1010.7
20260505205328 74 268 3.0 5.0 0.00 0.00 0.00 57 1010.7
20260505204824 74 214 3.0 9.0 0.00 0.00 0.00 57 1010.8
20260505204322 74 196 6.0 10.0 0.00 0.00 0.00 56 1010.9
20260505203820 75 260 3.0 5.0 0.00 0.00 0.00 57 1010.9
20260505203316 74 132 1.0 3.0 0.00 0.00 0.00 57 1011.1
20260505202812 75 236 3.0 7.0 0.00 0.00 0.00 57 1010.7
20260505202309 75 120 2.0 5.0 0.00 0.00 0.00 57 1010.9
20260505201805 74 314 3.0 9.0 0.00 0.00 0.00 57 1010.8
20260505201303 75 178 3.0 5.0 0.00 0.00 0.00 57 1011.0
20260505200801 75 244 3.0 6.0 0.00 0.00 0.00 57 1010.9
20260505200258 75 237 2.0 11.0 0.00 0.00 0.00 57 1011.3
20260505195753 75 157 3.0 3.0 0.00 0.00 0.00 58 1011.3
20260505195251 75 273 5.0 8.0 0.00 0.00 0.00 57 1011.1
20260505194748 75 169 5.0 6.0 0.00 0.00 0.00 58 1011.6
20260505194244 75 252 5.0 8.0 0.00 0.00 0.00 57 1011.6
20260505193740 75 253 4.0 5.0 0.00 0.00 0.00 58 1011.8
20260505193238 75 179 5.0 7.0 0.00 0.00 0.00 57 1011.3
20260505192736 75 247 6.0 7.0 0.00 0.00 0.00 57 1011.8
20260505192233 75 186 3.0 8.0 0.00 0.00 0.00 57 1011.9
20260505191731 74 116 2.0 8.0 0.00 0.00 0.00 59 1011.7
20260505191230 75 243 5.0 8.0 0.00 0.00 0.00 57 1011.7
20260505190726 75 220 6.0 9.0 0.00 0.00 0.00 57 1011.8
20260505190225 75 275 5.0 6.0 0.00 0.00 0.00 56 1011.6
20260505185722 76 237 5.0 7.0 0.00 0.00 0.00 55 1012.0
20260505185219 76 203 7.0 9.0 0.00 0.00 0.00 55 1012.1
20260505184715 75 266 3.0 6.0 0.00 0.00 0.00 56 1012.1
20260505184212 76 233 4.0 7.0 0.00 0.00 0.00 54 1012.1
20260505183709 77 227 3.0 7.0 0.00 0.00 0.00 53 1012.1
20260505183207 76 209 4.0 10.0 0.00 0.00 0.00 53 1012.2
20260505182702 77 244 5.0 8.0 0.00 0.00 0.00 53 1012.1
20260505182200 77 235 4.0 8.0 0.00 0.00 0.00 52 1012.3
20260505181656 77 229 4.0 7.0 0.00 0.00 0.00 53 1012.0
20260505181154 77 210 3.0 9.0 0.00 0.00 0.00 52 1012.3
20260505180650 78 186 3.0 7.0 0.00 0.00 0.00 53 1012.3
20260505180147 79 213 7.0 9.0 0.00 0.00 0.00 50 1012.2
20260505175643 78 177 4.0 8.0 0.00 0.00 0.00 50 1012.2
20260505175139 79 139 1.0 6.0 0.00 0.00 0.00 49 1012.2
20260505174636 78 216 3.0 6.0 0.00 0.00 0.00 50 1012.2
20260505174132 79 219 3.0 3.0 0.00 0.00 0.00 50 1012.4
20260505173629 77 277 2.0 8.0 0.00 0.00 0.00 52 1012.6
20260505173126 78 159 4.0 8.0 0.00 0.00 0.00 51 1012.4
20260505172624 78 182 2.0 5.0 0.00 0.00 0.00 52 1012.5
20260505172120 78 243 4.0 5.0 0.00 0.00 0.00 52 1012.5
20260505171615 76 176 3.0 5.0 0.00 0.00 0.00 55 1012.5
20260505171112 77 156 4.0 5.0 0.00 0.00 0.00 53 1012.5
20260505170609 78 200 3.0 3.0 0.00 0.00 0.00 53 1012.7
20260505170105 77 209 2.0 5.0 0.00 0.00 0.00 54 1012.7
20260505165600 75 178 4.0 8.0 0.00 0.00 0.00 55 1012.8
20260505165056 76 204 6.0 9.0 0.00 0.00 0.00 54 1012.8
20260505164552 78 202 2.0 3.0 0.00 0.00 0.00 53 1012.7
20260505164050 78 75 4.0 6.0 0.00 0.00 0.00 53 1012.8
20260505163549 76 131 2.0 6.0 0.00 0.00 0.00 54 1012.9
20260505163045 77 114 1.0 7.0 0.00 0.00 0.00 52 1013.1
20260505162538 77 180 4.0 6.0 0.00 0.00 0.00 51 1013.2
20260505162035 78 8 2.0 3.0 0.00 0.00 0.00 51 1013.2
20260505161532 77 129 1.0 3.0 0.00 0.00 0.00 52 1013.2
20260505161029 76 260 3.0 8.0 0.00 0.00 0.00 52 1013.3
20260505160527 77 344 3.0 11.0 0.00 0.00 0.00 52 1013.4
20260505153003 75 328 3.0 9.0 0.00 0.00 0.00 53 1013.7
20260505152501 75 283 4.0 5.0 0.00 0.00 0.00 54 1013.8
20260505151956 74 187 3.0 3.0 0.00 0.00 0.00 55 1013.9
20260505151451 74 238 5.0 8.0 0.00 0.00 0.00 54 1013.7
20260505150949 74 274 2.0 5.0 0.00 0.00 0.00 55 1014.1
20260505150445 74 19 2.0 3.0 0.00 0.00 0.00 56 1014.1
20260505140416 70 116 1.0 3.0 0.00 0.00 0.00 65 1014.0
20260505124829 62 104 1.0 2.0 0.00 0.00 0.00 86 1013.9
20260505124326 61 212 2.0 3.0 0.00 0.00 0.00 87 1013.9
20260505123822 60 136 1.0 3.0 0.00 0.00 0.00 87 1014.1
20260505123319 59 180 2.0 2.0 0.00 0.00 0.00 88 1013.8
20260505122815 58 180 1.0 3.0 0.00 0.00 0.00 88 1013.8
20260505122312 57 131 1.0 3.0 0.00 0.00 0.00 89 1014.1
20260505121809 57 126 1.0 1.0 0.00 0.00 0.00 89 1013.7
20260505121306 56 125 0.0 1.0 0.00 0.00 0.00 89 1013.9
20260505120802 56 139 1.0 1.0 0.00 0.00 0.00 89 1013.8
20260505120258 56 141 1.0 2.0 0.00 0.00 0.00 89 1014.2
20260505115757 56 218 3.0 3.0 0.00 0.00 0.00 89 1014.2
20260505115254 55 91 1.0 1.0 0.00 0.00 0.00 90 1013.6
20260505114752 55 184 3.0 3.0 0.00 0.00 0.00 89 1013.9
20260505114248 56 65 2.0 5.0 0.00 0.00 0.00 89 1013.7
20260505113745 57 86 0.0 2.0 0.00 0.00 0.00 89 1014.4
20260505113241 56 4 2.0 2.0 0.00 0.00 0.00 89 1014.3
20260505112737 55 291 1.0 3.0 0.00 0.00 0.00 90 1014.2
20260505112235 55 91 0.0 0.0 0.00 0.00 0.00 90 1014.0
20260505111735 54 340 2.0 3.0 0.00 0.00 0.00 90 1014.3
20260505111231 53 91 0.0 3.0 0.00 0.00 0.00 91 1014.3
20260505110727 52 114 0.0 0.0 0.00 0.00 0.00 91 1014.3
20260505110225 51 116 1.0 1.0 0.00 0.00 0.00 91 1014.1
20260505102200 49 105 0.0 0.0 0.00 0.00 0.00 90 1013.7
20260505101659 50 97 0.0 0.0 0.00 0.00 0.00 90 1013.6
20260505101154 50 97 0.0 0.0 0.00 0.00 0.00 90 1013.6
20260505100651 50 96 0.0 0.0 0.00 0.00 0.00 90 1013.5
20260505100148 49 109 0.0 0.0 0.00 0.00 0.00 90 1013.4
20260505095644 50 109 0.0 0.0 0.00 0.00 0.00 90 1013.3
20260505095142 50 109 0.0 0.0 0.00 0.00 0.00 90 1013.3
20260505094637 50 100 0.0 0.0 0.00 0.00 0.00 89 1013.3
20260505094134 50 91 0.0 0.0 0.00 0.00 0.00 89 1013.3
20260505093630 49 105 0.0 0.0 0.00 0.00 0.00 89 1013.1
20260505093128 48 118 0.0 0.0 0.00 0.00 0.00 89 1013.3
20260505092624 49 118 0.0 1.0 0.00 0.00 0.00 89 1013.2
20260505092123 49 115 0.0 0.0 0.00 0.00 0.00 89 1013.2
20260505091619 50 118 0.0 0.0 0.00 0.00 0.00 89 1013.3
20260505091118 49 157 1.0 2.0 0.00 0.00 0.00 89 1013.4
20260505090615 49 123 0.0 0.0 0.00 0.00 0.00 89 1013.1
20260505090113 48 150 1.0 1.0 0.00 0.00 0.00 88 1013.1
20260505085610 49 116 0.0 1.0 0.00 0.00 0.00 88 1013.3
20260505085109 49 113 0.0 0.0 0.00 0.00 0.00 88 1013.2
20260505084606 49 112 0.0 0.0 0.00 0.00 0.00 88 1013.0
20260505084104 49 112 0.0 0.0 0.00 0.00 0.00 88 1013.2
20260505083601 49 113 0.0 0.0 0.00 0.00 0.00 88 1012.9
20260505083058 49 113 0.0 0.0 0.00 0.00 0.00 88 1013.3
20260505082553 49 112 0.0 0.0 0.00 0.00 0.00 87 1013.3
20260505082051 49 113 0.0 0.0 0.00 0.00 0.00 87 1013.2
20260505081547 50 121 0.0 1.0 0.00 0.00 0.00 87 1013.3
20260505081044 50 113 0.0 0.0 0.00 0.00 0.00 87 1013.4
20260505080540 50 117 0.0 0.0 0.00 0.00 0.00 87 1013.2
20260505080037 50 124 0.0 1.0 0.00 0.00 0.00 87 1013.3
20260505075533 51 115 0.0 0.0 0.00 0.00 0.00 87 1013.5
20260505075030 51 116 0.0 0.0 0.00 0.00 0.00 87 1013.2
20260505074527 51 123 0.0 1.0 0.00 0.00 0.00 86 1013.2
20260505074024 51 110 0.0 0.0 0.00 0.00 0.00 86 1013.2
20260505073522 51 110 0.0 0.0 0.00 0.00 0.00 86 1013.0
20260505073020 50 111 0.0 0.0 0.00 0.00 0.00 86 1013.2
20260505072515 51 112 0.0 1.0 0.00 0.00 0.00 86 1013.2
20260505072012 51 114 0.0 0.0 0.00 0.00 0.00 85 1013.2
20260505071507 51 113 0.0 0.0 0.00 0.00 0.00 85 1013.2
20260505071006 51 114 0.0 1.0 0.00 0.00 0.00 85 1013.0
20260505070503 51 118 0.0 1.0 0.00 0.00 0.00 84 1013.2
20260505065958 51 124 0.0 1.0 0.00 0.00 0.00 84 1013.2
20260505065454 51 120 1.0 1.0 0.00 0.00 0.00 83 1013.2
20260505064951 52 119 1.0 1.0 0.00 0.00 0.00 83 1013.2
20260505064448 52 119 1.0 1.0 0.00 0.00 0.00 82 1013.2
20260505063947 52 108 0.0 0.0 0.00 0.00 0.00 82 1013.2
20260505063443 52 109 0.0 0.0 0.00 0.00 0.00 82 1013.2
20260505062939 52 110 0.0 0.0 0.00 0.00 0.00 81 1013.4
20260505062436 53 111 0.0 1.0 0.00 0.00 0.00 81 1013.3
20260505061933 53 110 0.0 0.0 0.00 0.00 0.00 80 1013.4
20260505061431 53 111 0.0 0.0 0.00 0.00 0.00 80 1013.2
20260505060928 53 110 0.0 0.0 0.00 0.00 0.00 79 1013.3
20260505060426 53 110 0.0 0.0 0.00 0.00 0.00 78 1013.1
20260505055922 54 109 0.0 0.0 0.00 0.00 0.00 78 1013.4
20260505055418 54 110 0.0 0.0 0.00 0.00 0.00 77 1013.3
20260505054915 54 110 0.0 0.0 0.00 0.00 0.00 77 1013.6
20260505054412 55 106 0.0 0.0 0.00 0.00 0.00 76 1013.6
20260505053910 55 117 0.0 1.0 0.00 0.00 0.00 76 1013.4
20260505053407 55 127 1.0 1.0 0.00 0.00 0.00 75 1013.6
20260505052903 56 124 0.0 1.0 0.00 0.00 0.00 75 1013.7
20260505052401 56 139 1.0 1.0 0.00 0.00 0.00 74 1013.7
20260505051858 57 148 1.0 2.0 0.00 0.00 0.00 74 1013.5
20260505051355 57 139 1.0 1.0 0.00 0.00 0.00 75 1013.7
20260505050853 56 148 1.0 1.0 0.00 0.00 0.00 75 1013.6
20260505050351 56 118 0.0 2.0 0.00 0.00 0.00 75 1013.5
20260505041319 55 117 0.0 2.0 0.00 0.00 0.00 78 1013.9
20260505040815 55 123 0.0 2.0 0.00 0.00 0.00 78 1013.8
20260505040313 55 116 0.0 1.0 0.00 0.00 0.00 78 1013.8
20260505035809 55 128 1.0 1.0 0.00 0.00 0.00 78 1013.8
20260505035305 55 120 0.0 2.0 0.00 0.00 0.00 79 1013.9
20260505034803 54 123 0.0 2.0 0.00 0.00 0.00 79 1013.9
20260505034259 54 112 0.0 0.0 0.00 0.00 0.00 79 1014.0
20260505033756 54 116 0.0 1.0 0.00 0.00 0.00 79 1013.9
20260505033254 54 107 0.0 0.0 0.00 0.00 0.00 79 1014.0
20260505032752 54 118 0.0 1.0 0.00 0.00 0.00 78 1014.0
20260505032247 55 121 0.0 1.0 0.00 0.00 0.00 78 1013.9
20260505031745 55 111 0.0 1.0 0.00 0.00 0.00 78 1013.8
20260505031241 55 141 1.0 2.0 0.00 0.00 0.00 78 1014.3
20260505030738 55 121 0.0 2.0 0.00 0.00 0.00 78 1013.9
20260505030234 56 118 0.0 1.0 0.00 0.00 0.00 77 1013.9
20260505025730 56 136 1.0 1.0 0.00 0.00 0.00 78 1013.9
20260505025228 56 119 0.0 1.0 0.00 0.00 0.00 78 1013.9
20260505024726 55 127 1.0 2.0 0.00 0.00 0.00 78 1014.0
20260505024223 55 126 1.0 1.0 0.00 0.00 0.00 78 1013.8
20260505023720 55 116 0.0 1.0 0.00 0.00 0.00 78 1013.8
20260505023218 56 114 0.0 2.0 0.00 0.00 0.00 79 1014.0
20260505022715 56 132 1.0 1.0 0.00 0.00 0.00 79 1014.1
20260505022212 56 125 0.0 1.0 0.00 0.00 0.00 79 1014.0
20260505021709 55 128 0.0 1.0 0.00 0.00 0.00 80 1014.0
20260505021206 55 118 0.0 0.0 0.00 0.00 0.00 79 1014.1
20260505020701 55 121 0.0 1.0 0.00 0.00 0.00 80 1014.0
20260505020157 55 110 0.0 0.0 0.00 0.00 0.00 80 1013.9
20260505015654 55 122 0.0 1.0 0.00 0.00 0.00 80 1014.1
20260505015151 55 120 1.0 1.0 0.00 0.00 0.00 80 1013.9
20260505014648 55 121 0.0 1.0 0.00 0.00 0.00 80 1014.1
20260505014145 54 117 0.0 0.0 0.00 0.00 0.00 79 1013.8
20260505013642 54 112 0.0 0.0 0.00 0.00 0.00 79 1014.0
20260505013139 54 106 0.0 0.0 0.00 0.00 0.00 79 1013.9
20260505012638 55 107 0.0 0.0 0.00 0.00 0.00 78 1013.7
20260505012134 55 111 0.0 0.0 0.00 0.00 0.00 78 1013.7
20260505011630 55 114 1.0 1.0 0.00 0.00 0.00 77 1013.6
20260505011127 55 118 0.0 1.0 0.00 0.00 0.00 76 1013.8
20260505010622 56 124 1.0 1.0 0.00 0.00 0.00 76 1013.5
20260505010119 56 133 1.0 1.0 0.00 0.00 0.00 75 1013.4
20260505005615 56 128 1.0 1.0 0.00 0.00 0.00 75 1013.6
20260505005112 57 137 1.0 2.0 0.00 0.00 0.00 74 1013.5
20260505004609 57 127 0.0 1.0 0.00 0.00 0.00 74 1013.3
20260505004106 57 150 1.0 2.0 0.00 0.00 0.00 73 1013.3
20260505003603 57 119 0.0 2.0 0.00 0.00 0.00 72 1013.1
20260505003101 57 158 1.0 2.0 0.00 0.00 0.00 72 1013.2